Temperature
12 12 12 11 11 11 10 10 10 10 9 9 9 9 9 9 9 9 9 10 10 10 10 10 11 11 11 11 11 11 11 11 11 12 12 13 14 14 15 15 15 15 15
12 12 11 11 11 10 10 10 9 9 9 9 9 9 9 9 9 9 9 9 9 9 10 10 10 10 10 11 11 11 11 11 11 11 12 12 13 13 14 14 15 15 15
12 11 11 11 10 10 10 9 9 9 9 9 9 9 9 9 9 9 9 9 9 9 9 9 9 10 10 10 10 10 11 11 11 11 11 12 12 12 13 13 14 14 14
11 11 10 10 10 9 9 9 9 9 9 9 8 8 8 8 8 8 8 8 8 9 9 9 9 9 9 10 10 10 10 10 10 10 11 11 12 12 12 13 13 13 14
11 10 10 10 9 9 9 9 9 8 8 8 8 8 8 8 8 8 8 8 8 8 8 8 9 9 9 9 9 10 10 10 10 10 10 11 11 11 12 12 12 13 13
10 10 10 9 9 9 9 8 8 8 8 8 8 8 8 8 8 8 8 8 8 8 8 8 8 8 9 9 9 9 10 10 10 10 10 10 11 11 11 11 12 12 12
10 10 9 9 9 9 8 8 8 8 8 8 8 8 8 8 8 8 7 7 7 7 8 8 8 8 8 8 9 9 9 9 10 10 10 10 10 11 11 11 11 12 12
10 9 9 9 9 8 8 8 8 8 8 8 8 8 8 8 8 8 7 7 7 7 7 7 7 8 8 8 8 8 9 9 9 10 10 10 10 10 11 11 11 11 11
10 9 9 9 8 8 8 8 8 8 8 8 8 8 8 8 8 7 7 7 7 7 7 7 7 7 8 8 8 8 8 9 9 9 10 10 10 10 10 10 11 11 11
9 9 9 8 8 8 8 8 8 8 8 8 8 8 8 7 7 7 7 7 7 7 7 7 7 7 7 7 7 8 8 8 9 9 9 10 10 10 10 10 10 11 11
9 9 9 9 8 8 8 8 8 8 8 8 8 8 7 7 7 7 7 7 7 7 7 7 7 7 7 7 7 7 8 8 8 9 9 9 10 10 10 10 10 10 11
10 9 9 9 8 8 8 8 8 8 8 8 8 8 8 7 7 7 7 6 6 6 6 7 7 7 7 7 7 7 8 8 8 8 9 9 9 10 10 10 10 10 10
10 9 9 9 9 9 8 8 8 8 8 8 8 8 8 7 7 7 6 6 6 6 6 6 6 7 7 7 7 7 7 7 8 8 9 9 9 10 10 10 10 10 10
10 10 9 9 9 9 9 8 8 8 8 8 8 7 7 7 7 7 6 6 6 6 6 6 6 6 6 7 7 7 7 7 8 8 9 9 9 9 9 9 9 9 9
10 10 9 9 9 9 9 9 9 8 8 8 8 7 7 7 7 6 6 6 6 6 6 6 6 6 6 6 7 7 7 7 8 8 8 9 9 9 9 9 9 9 9
10 10 10 9 9 9 9 9 9 9 8 8 8 7 7 7 7 6 6 6 6 6 6 6 6 6 6 6 7 7 7 7 8 8 8 9 9 9 9 9 9 9 9
10 10 9 9 9 9 9 9 9 9 9 8 8 8 8 7 7 7 6 6 6 6 6 6 6 6 6 6 7 7 7 7 8 8 8 8 8 9 9 9 9 9 9
10 10 10 9 9 9 9 9 9 9 9 9 8 8 8 7 7 7 7 6 6 6 6 6 6 6 6 7 7 7 7 7 8 8 8 8 8 8 9 9 9 9 9
10 10 10 10 9 9 9 9 9 9 9 9 8 8 8 8 7 7 7 7 7 6 6 6 6 7 7 7 7 7 7 7 8 8 8 8 8 8 9 9 9 9 9
10 10 10 10 9 9 9 9 9 9 9 9 8 8 8 8 8 7 7 7 7 7 7 7 7 7 7 7 7 7 7 7 8 8 8 8 8 8 9 9 9 9 9
11 10 10 10 10 9 9 9 9 9 9 9 9 8 8 8 8 8 7 7 7 7 7 7 7 7 7 7 7 7 8 8 8 8 8 8 8 8 8 8 8 9 9
10 10 10 10 10 10 10 10 9 9 9 9 9 9 8 8 8 8 8 7 7 7 7 7 7 7 7 7 8 8 8 8 8 8 8 8 8 8 8 8 8 8 8
10 10 10 10 10 10 10 10 10 9 9 9 9 9 9 8 8 8 8 8 7 7 7 7 7 7 8 8 8 8 8 8 8 8 8 8 8 8 8 8 8 8 8
10 10 10 10 10 10 10 10 10 10 9 9 9 9 9 9 8 8 8 8 7 7 7 7 7 8 8 8 8 8 8 8 8 8 8 8 8 8 8 8 8 8 8
10 10 9 9 9 10 10 10 10 10 10 9 9 9 9 9 9 8 8 8 8 7 7 7 7 7 8 8 8 8 8 8 8 8 8 8 8 8 8 8 8 8 8
10 9 9 9 9 9 10 10 10 10 10 10 9 9 9 9 9 8 8 8 8 8 8 8 7 7 7 7 8 8 8 8 8 8 8 8 8 8 8 8 8 8 8
Wind_Speed
5 5 5 6 6 6 6 7 7 7 7 7 8 8 8 8 7 7 8 8 8 8 7 8 9 8 7 6 6 5 5 5 6 4 2 1 1 1 2 4 5 6 8
5 5 6 6 6 6 7 7 7 7 8 8 8 8 9 9 8 8 9 9 9 10 10 9 10 8 9 7 7 7 6 6 5 5 2 1 0 2 3 4 5 6 7
5 5 6 7 7 7 8 8 7 8 8 8 8 9 9 9 9 9 9 10 10 10 10 10 10 10 10 8 9 8 7 6 5 5 3 2 1 2 3 3 6 5 6
5 6 7 8 8 8 8 8 8 8 9 9 9 9 10 10 10 10 10 10 11 11 11 11 11 11 11 11 9 10 8 7 6 5 5 3 2 2 4 4 4 4 5
6 7 8 8 8 8 8 9 9 9 10 9 10 10 10 9 10 10 10 10 10 11 11 11 11 13 14 12 9 10 10 8 7 6 6 4 4 4 5 4 5 6 4
6 8 8 8 8 9 9 9 9 10 10 9 10 10 11 10 11 14 12 10 10 11 11 11 11 13 15 15 16 14 13 11 10 8 6 7 7 6 5 6 6 6 4
7 8 8 8 9 10 10 9 10 10 9 10 10 10 11 12 15 16 17 12 11 11 12 11 10 11 12 11 12 14 15 16 14 10 9 9 8 8 9 9 8 7 5
8 8 8 9 10 10 10 10 10 9 9 10 11 11 11 12 14 15 15 12 11 12 12 12 11 11 11 10 11 10 10 12 13 10 9 9 8 9 9 9 8 6 5
8 9 9 9 10 10 11 10 9 9 10 10 10 11 11 12 13 14 12 8 9 11 11 11 12 12 13 13 11 11 10 9 10 12 11 9 9 10 9 8 9 8 5
9 9 9 9 9 11 11 10 9 9 10 10 10 10 10 11 12 12 10 6 8 9 9 10 13 13 13 14 12 11 11 10 8 9 9 8 8 9 12 10 10 9 6
8 8 9 9 9 10 10 8 9 9 9 9 10 9 9 10 11 11 9 6 7 8 8 8 8 13 14 14 13 11 11 9 8 9 8 7 7 7 8 9 8 9 8
7 8 9 9 9 8 9 9 9 8 9 9 8 9 7 7 8 9 9 8 8 8 8 7 7 11 13 14 12 11 11 10 7 7 7 7 7 7 7 8 9 7 5
7 9 9 10 9 8 8 9 9 7 7 8 7 8 8 6 6 8 9 8 8 6 6 8 8 10 10 9 11 12 10 8 7 7 8 7 6 7 7 6 7 7 5
8 9 9 9 10 9 7 7 7 7 7 7 7 7 7 7 5 5 4 5 6 5 4 5 6 7 7 6 6 8 7 8 8 8 7 6 5 6 7 6 6 7 6
8 8 9 8 9 9 9 7 8 8 8 8 7 7 7 8 7 7 6 5 4 4 2 2 2 3 4 5 5 6 6 7 7 6 6 6 6 6 6 6 6 7 6
7 8 7 7 8 8 8 9 9 10 11 12 11 9 8 10 11 10 8 8 7 6 3 2 3 3 4 5 6 6 7 7 7 7 6 7 7 7 6 6 7 7 7
7 8 7 7 8 8 8 8 10 10 9 9 10 10 11 10 9 8 7 6 5 4 3 3 3 4 4 5 5 6 6 6 6 7 7 7 7 7 7 7 7 8 8
7 8 8 7 7 8 8 7 7 8 9 7 6 8 9 9 8 7 6 3 2 2 3 3 4 4 4 5 5 5 5 6 6 6 7 7 7 7 7 7 8 8 8
6 6 6 7 7 7 7 7 7 8 7 7 7 6 5 5 5 6 4 3 3 3 3 4 4 4 4 4 5 5 6 6 7 7 6 7 7 7 7 7 8 10 9
6 9 8 7 7 7 6 6 7 7 7 7 6 6 3 2 2 3 3 3 4 4 4 4 4 4 4 4 5 5 5 6 6 6 6 7 7 7 8 8 8 9 8
5 7 9 7 6 6 6 6 6 7 7 7 6 6 5 4 4 4 4 4 4 5 4 4 4 4 4 4 4 6 7 6 6 7 7 7 7 7 7 8 8 8 8
5 5 5 6 6 6 6 6 6 6 7 7 6 6 5 4 4 4 4 4 4 4 4 4 4 4 5 5 5 6 6 7 7 7 7 7 7 8 8 8 8 8 9
4 5 5 5 5 7 6 5 5 5 6 6 6 5 4 4 4 4 3 3 3 3 3 3 4 4 4 4 5 6 7 7 7 8 8 8 8 8 8 9 10 10 11
4 5 5 5 5 5 5 6 5 5 5 5 5 5 5 4 4 4 3 2 2 2 2 2 3 4 4 4 4 5 5 6 7 8 10 9 9 8 9 9 10 12 12
4 4 4 4 4 5 5 5 5 5 5 5 5 5 5 4 4 3 3 2 2 1 1 1 1 1 2 3 3 4 5 7 7 7 8 9 10 10 10 11 10 11 11
3 4 4 3 4 4 5 5 5 5 5 5 4 4 4 4 4 4 3 3 2 1 1 1 0 0 1 2 3 4 5 6 6 7 7 8 9 9 11 10 12 11 12
Wind_Direction
281 281 285 284 283 281 276 275 277 279 279 277 277 277 275 272 267 258 256 257 254 256 252 245 245 239 233 229 224 225 226 227 249 263 271 311 356 148 117 114 124 130 143
281 285 284 284 286 284 280 280 280 280 279 276 276 275 274 272 264 258 260 259 252 253 252 247 249 244 234 229 223 224 224 221 230 252 255 253 269 172 142 129 119 123 128
286 287 288 288 287 282 280 282 283 282 283 282 276 273 273 271 268 263 258 259 255 252 250 246 246 240 237 230 224 223 222 222 219 233 246 231 198 171 145 129 123 117 116
286 287 286 286 284 282 281 282 282 281 281 280 277 274 272 271 269 266 261 258 256 254 251 247 244 237 235 230 226 223 218 216 216 222 233 231 209 186 162 152 143 130 122
290 289 285 286 286 285 285 284 284 282 282 278 279 279 275 272 266 261 257 257 254 255 254 250 246 241 236 229 225 218 212 210 209 214 221 217 210 188 181 161 159 139 124
285 285 287 290 292 289 287 287 287 287 285 283 281 279 278 274 268 265 265 262 257 255 256 254 251 251 245 235 228 218 208 205 205 205 212 218 214 201 187 168 158 156 158
284 287 290 291 293 291 292 293 290 289 288 288 285 281 278 274 269 269 269 266 258 254 251 251 253 248 235 232 231 227 220 215 204 199 206 212 208 202 190 183 179 170 159
286 288 290 292 294 294 294 291 289 288 289 288 287 285 282 280 275 270 270 267 259 252 247 243 243 246 239 227 224 224 223 223 217 211 211 213 210 200 194 188 174 147 114
286 288 290 292 295 297 296 293 291 290 292 289 287 286 285 286 282 278 273 268 259 255 249 241 236 239 235 223 222 221 222 229 225 216 210 211 202 191 180 171 167 161 159
283 286 289 290 292 293 291 290 289 288 288 290 288 285 283 284 285 285 281 264 259 257 251 243 236 232 228 215 216 215 217 221 216 208 207 208 203 194 183 183 180 173 159
281 287 292 291 290 288 286 286 290 291 291 290 289 290 285 281 286 286 285 264 253 254 251 245 238 226 222 215 211 213 214 209 208 201 195 190 188 193 193 191 187 179 172
285 291 293 293 293 294 292 293 292 291 293 293 295 298 293 286 285 292 293 282 260 248 248 246 238 224 219 212 211 211 205 198 199 191 188 187 189 194 194 191 191 189 179
291 293 296 299 297 292 291 295 300 296 292 293 293 296 299 298 293 292 299 300 290 257 251 243 236 225 217 214 215 206 197 198 195 192 193 192 195 190 179 179 177 170 148
287 294 298 303 305 304 298 291 292 294 294 294 292 293 296 299 302 309 313 312 306 282 265 251 233 218 209 201 199 201 199 197 196 196 191 182 176 175 176 174 171 167 159
286 293 300 301 301 306 305 294 287 280 270 274 282 281 288 295 299 303 302 299 294 286 275 233 210 199 193 190 187 186 188 193 196 190 176 168 174 176 174 171 164 165 168
287 297 300 304 305 305 308 310 292 277 281 269 256 258 266 263 283 294 296 295 285 277 253 219 213 208 199 188 183 184 189 190 189 182 175 173 175 176 171 168 169 169 170
274 288 296 299 302 305 306 307 312 314 301 283 272 268 260 269 277 283 291 296 281 248 228 235 223 209 204 192 187 185 186 185 180 178 179 176 175 175 172 173 175 174 173
275 284 289 291 296 298 300 301 300 304 311 311 297 284 280 273 269 270 278 286 261 225 232 241 237 218 203 195 193 190 181 173 176 180 177 175 176 176 176 179 181 178 172
280 285 289 292 293 295 297 299 301 302 301 302 307 307 294 278 264 258 251 244 247 247 240 238 236 224 211 200 192 187 182 180 178 178 179 179 179 179 181 185 184 174 171
277 287 296 295 299 303 305 306 309 310 310 309 308 308 308 289 276 263 232 237 244 246 245 239 232 224 213 203 191 186 185 183 181 184 184 184 183 183 184 185 182 177 178
279 292 302 303 299 300 304 306 307 309 310 312 308 297 279 272 275 275 263 242 240 242 238 235 229 218 211 202 192 188 188 188 187 187 185 186 185 184 185 184 184 180 174
272 284 293 298 301 304 305 304 307 311 314 316 317 317 304 282 280 282 279 264 250 242 236 233 230 217 206 199 192 188 190 192 191 191 188 185 185 184 182 181 181 178 175
266 282 292 298 299 304 309 312 316 317 317 318 316 320 323 314 305 299 296 287 270 253 243 234 234 229 214 204 200 197 197 197 193 187 184 182 183 183 181 182 182 178 178
261 276 289 299 305 311 313 315 318 318 320 321 322 326 327 325 322 317 311 300 293 278 253 237 231 228 221 209 201 201 205 199 189 189 187 184 182 183 183 183 183 183 181
259 274 285 295 304 309 311 314 317 322 327 326 325 330 334 334 334 329 326 323 321 318 303 271 232 221 214 208 199 194 184 184 187 182 182 183 182 182 182 182 181 180 178
256 271 282 293 302 307 310 313 318 325 328 328 328 332 336 336 335 334 334 340 351 354 332 321 351 155 173 191 187 167 166 174 176 176 178 178 178 180 180 181 180 180 175
Height
1498 1496 1494 1492 1490 1488 1485 1483 1480 1478 1475 1473 1471 1470 1468 1467 1466 1465 1465 1464 1464 1464 1464 1465 1465 1467 1468 1469 1470 1470 1471 1471 1470 1470 1471 1472 1474 1476 1479 1482 1485 1488 1492
1495 1493 1491 1488 1486 1483 1480 1478 1475 1472 1470 1468 1465 1464 1462 1461 1460 1459 1458 1458 1457 1457 1458 1458 1459 1460 1461 1462 1464 1465 1466 1466 1467 1466 1468 1469 1471 1473 1475 1478 1481 1485 1489
1492 1489 1487 1484 1481 1478 1475 1472 1469 1467 1464 1462 1459 1457 1456 1454 1453 1452 1451 1450 1450 1450 1450 1451 1452 1453 1454 1455 1457 1459 1460 1462 1462 1463 1464 1466 1467 1470 1472 1475 1478 1482 1485
1488 1485 1482 1479 1476 1473 1469 1466 1463 1461 1458 1455 1453 1451 1449 1447 1446 1445 1444 1443 1443 1443 1443 1443 1444 1445 1447 1449 1450 1452 1454 1456 1458 1459 1460 1462 1464 1467 1469 1472 1475 1478 1482
1484 1481 1478 1475 1471 1467 1464 1461 1458 1455 1452 1449 1446 1444 1442 1440 1439 1438 1437 1436 1435 1435 1435 1436 1436 1438 1439 1441 1443 1446 1448 1450 1452 1453 1455 1458 1459 1462 1465 1468 1472 1475 1479
1480 1477 1473 1470 1466 1462 1459 1455 1452 1449 1446 1443 1440 1438 1435 1434 1432 1431 1430 1428 1427 1427 1427 1428 1429 1430 1432 1434 1436 1439 1441 1444 1446 1448 1451 1452 1455 1458 1461 1464 1468 1472 1475
1476 1473 1469 1465 1461 1457 1454 1450 1447 1444 1440 1437 1435 1432 1429 1427 1426 1424 1422 1421 1420 1419 1420 1420 1421 1422 1424 1426 1429 1432 1434 1437 1441 1443 1445 1447 1450 1453 1456 1459 1463 1467 1471
1472 1468 1464 1460 1456 1452 1449 1445 1442 1439 1435 1432 1429 1426 1423 1421 1419 1417 1415 1414 1412 1412 1412 1413 1414 1415 1417 1420 1422 1424 1427 1431 1434 1437 1440 1443 1445 1448 1451 1455 1458 1463 1468
1468 1464 1460 1456 1451 1447 1444 1441 1437 1434 1431 1427 1424 1421 1417 1415 1413 1411 1409 1407 1405 1405 1405 1406 1406 1408 1410 1413 1415 1417 1421 1424 1428 1432 1435 1438 1441 1444 1446 1450 1453 1457 1462
1464 1460 1456 1451 1447 1443 1440 1437 1433 1430 1426 1423 1419 1416 1413 1409 1407 1405 1403 1400 1399 1398 1398 1399 1400 1401 1403 1406 1408 1411 1414 1418 1422 1427 1430 1433 1436 1439 1442 1445 1449 1453 1457
1460 1456 1452 1447 1443 1440 1436 1433 1429 1426 1422 1419 1415 1412 1408 1405 1402 1399 1397 1395 1393 1392 1392 1392 1393 1395 1397 1399 1402 1405 1409 1413 1417 1421 1425 1428 1432 1435 1438 1441 1445 1449 1453
1456 1452 1448 1444 1440 1436 1432 1429 1426 1422 1418 1414 1411 1407 1404 1400 1397 1394 1392 1390 1388 1387 1386 1387 1388 1390 1391 1394 1397 1400 1404 1408 1412 1415 1419 1423 1427 1430 1434 1437 1441 1446 1450
1452 1448 1444 1440 1436 1433 1429 1425 1421 1418 1414 1410 1406 1402 1399 1396 1393 1389 1387 1385 1383 1382 1382 1382 1383 1385 1387 1389 1392 1395 1399 1402 1406 1410 1413 1418 1422 1427 1430 1434 1438 1441 1446
1448 1444 1440 1436 1432 1429 1426 1422 1418 1414 1410 1406 1402 1399 1395 1392 1389 1386 1383 1381 1380 1379 1378 1379 1380 1381 1383 1385 1387 1390 1394 1397 1401 1405 1409 1414 1418 1422 1426 1430 1434 1437 1442
1444 1441 1437 1433 1429 1425 1422 1419 1414 1411 1407 1403 1399 1395 1391 1388 1386 1383 1380 1378 1377 1376 1376 1376 1377 1378 1379 1381 1383 1386 1390 1394 1398 1402 1406 1410 1414 1418 1422 1426 1430 1434 1438
1441 1437 1433 1430 1426 1422 1419 1415 1412 1408 1404 1400 1396 1392 1389 1386 1383 1380 1378 1376 1375 1374 1374 1374 1375 1376 1377 1379 1381 1384 1387 1390 1394 1399 1403 1407 1411 1415 1419 1423 1426 1430 1434
1437 1434 1430 1427 1423 1419 1416 1412 1408 1404 1401 1397 1393 1389 1386 1383 1381 1378 1376 1374 1373 1373 1372 1373 1373 1374 1375 1377 1379 1382 1385 1388 1392 1396 1400 1404 1408 1412 1416 1419 1423 1426 1431
1434 1431 1428 1424 1421 1417 1413 1410 1405 1401 1397 1393 1390 1387 1384 1381 1379 1377 1375 1373 1372 1371 1371 1371 1372 1373 1374 1376 1378 1381 1384 1387 1390 1394 1398 1402 1406 1409 1413 1416 1420 1423 1427
1431 1428 1425 1422 1418 1415 1411 1408 1404 1400 1395 1391 1388 1385 1382 1379 1377 1375 1373 1372 1371 1370 1370 1370 1371 1372 1373 1375 1377 1379 1382 1385 1388 1392 1396 1399 1403 1407 1410 1413 1417 1420 1424
1428 1425 1422 1419 1416 1412 1409 1406 1402 1398 1394 1389 1386 1383 1380 1377 1375 1373 1372 1370 1369 1369 1369 1369 1370 1371 1372 1373 1375 1377 1380 1383 1386 1390 1393 1397 1400 1404 1407 1411 1414 1417 1421
1425 1422 1419 1416 1413 1410 1407 1403 1400 1396 1392 1388 1385 1381 1379 1376 1374 1372 1370 1369 1368 1367 1367 1368 1368 1369 1370 1372 1373 1376 1378 1381 1384 1387 1391 1394 1398 1401 1404 1408 1411 1415 1419
1421 1419 1416 1414 1411 1408 1405 1402 1398 1395 1391 1388 1384 1381 1378 1375 1373 1370 1368 1367 1366 1366 1366 1366 1367 1367 1369 1370 1372 1374 1376 1378 1381 1384 1388 1391 1394 1398 1401 1404 1408 1411 1415
1418 1415 1413 1411 1409 1406 1403 1400 1397 1394 1391 1388 1384 1381 1378 1375 1372 1370 1368 1366 1365 1364 1364 1364 1364 1365 1366 1367 1369 1371 1373 1376 1378 1381 1384 1387 1391 1394 1398 1401 1404 1408 1412
1414 1412 1410 1408 1406 1404 1401 1399 1396 1393 1390 1387 1384 1381 1378 1375 1372 1370 1368 1366 1364 1363 1363 1363 1363 1363 1364 1365 1366 1368 1371 1373 1376 1378 1381 1384 1387 1391 1394 1398 1401 1405 1409
1410 1408 1407 1405 1404 1401 1399 1397 1395 1392 1389 1387 1384 1381 1378 1376 1373 1371 1368 1366 1364 1363 1362 1362 1361 1361 1362 1362 1364 1365 1367 1370 1372 1375 1378 1381 1384 1387 1391 1394 1398 1402 1406
1406 1405 1404 1402 1401 1399 1397 1395 1393 1391 1389 1386 1384 1382 1379 1377 1374 1372 1369 1367 1365 1363 1362 1361 1361 1360 1360 1360 1361 1363 1365 1367 1369 1372 1375 1377 1381 1384 1388 1391 1395 1399 1403